User: anonymous   Login
Location: Unspecified
(0.0000°N, 0.0000°E)
Time: 07:17:37
(UTC+00:00)
Language:

Kosmos-1655 - Orbit

View from above orbital plane
View from above orbital plane
View from above satellite
View from above satellite

Ground track
Ground track

The orbit is defined by the following mean orbital elements,

1 15751U          26106.54546968 +.00000000 +00000-0 +19667-4 0 00007
2 15751  82.9451 112.0363 0025158 267.9683 210.8312 13.71931974    00
Epoch (UTC): 16 April 2026 13:05:28
Eccentricity: 0.0025158
inclination: 82.9451°
perigee height: 974 km
apogee height: 1011 km
right ascension of ascending node: 112.0363°
argument of perigee: 267.9683°
revolutions per day: 13.71931974
mean anomaly at epoch: 210.8312°

The dashed part of the orbit path shows where the satellite is in the earth's shadow,  

DLR